User: anonymous   Login
Location: Unspecified
(0.0000°N, 0.0000°E)
Time: 21:09:06
(UTC+00:00)
Language:

METEOR M2 - Orbit

View from above orbital plane
View from above orbital plane
View from above satellite
View from above satellite

Ground track
Ground track

The orbit data is extracted from the following two-line orbital elements,

1 40069U 14037A   18173.41438229 -.00000040  00000-0  13194-5 0  9995
2 40069  98.6020 224.3790 0004737 216.5729 143.5127 14.20652260205127
Epoch (UTC): 22 June 2018 09:56:42
Eccentricity: 0.0004737
inclination: 98.6020°
perigee height: 820 km
apogee height: 826 km
right ascension of ascending node: 224.3790°
argument of perigee: 216.5729°
revolutions per day: 14.20652260
mean anomaly at epoch: 143.5127°
orbit number at epoch: 20512

The dashed part of the orbit path shows where the satellite is in the earth's shadow,  

DLR